Roxboro, NC

1:15 PM EDT on April 24, 2017 (GMT -0400)
Person County

Weather History for KTDF - March, 2011

Change the Weather History Date:

Wednesday, March 2, 2011

  Actual Average Record
Temperature  
Mean Temperature 46 °F -  
Max Temperature 66 °F 58 °F 80 °F (2006)
Min Temperature 26 °F 31 °F 7 °F (1980)
Degree Days  
Heating Degree Days 19    
Moisture  
Dew Point 26 °F    
Average Humidity 53    
Maximum Humidity 93    
Minimum Humidity 22    
Precipitation  
Precipitation 0.00 in - - ()
Sea Level Pressure  
Sea Level Pressure 30.25 in    
Wind  
Wind Speed 2 mph (WSW)    
Max Wind Speed 14 mph    
Max Gust Speed 18 mph    
Visibility 10 miles    
Events      
Averages and records for this station are not official NWS values.
T = Trace of Precipitation, MM = Missing Value Source: NWS Daily Summary

Daily Weather History Graph

Daily Weather History Graph

Search for Another Location

Airport or City:

Trip Planner

Search our weather history database for the weather conditions in past years. The results will help you decide how hot, cold, wet, or windy it might be!

Date:

Astronomy

Mar. 02, 2011 Rise Set
Actual Time 6:45 AM EST 6:11 PM EST
Civil Twilight 6:19 AM EST 6:37 PM EST
Nautical Twilight 5:49 AM EST 7:07 PM EST
Astronomical Twilight 5:19 AM EST 7:36 PM EST
Moon 5:20 AM EST (3/2) 4:26 PM EST (3/2)
Length of Visible Light 12h 17m
Length of Day
11h 26m
Waning Crescent, 4% of the Moon is Illuminated
Mar 2
Waning Crescent
Mar 4
New
Mar 12
First Quarter
Mar 19
Full
Mar 26
Last Quarter

Hourly Weather History & Observations

Time (EST) Temp. Windchill Dew Point Humidity Pressure Visibility Wind Dir Wind Speed Gust Speed Precip Events Conditions
12:02 AM 26.6 °F - 23.0 °F 86% 30.31 in 10.0 mi Calm Calm - N/A   Clear
12:22 AM 28.4 °F - 24.8 °F 86% 30.31 in 10.0 mi Calm Calm - N/A   Clear
12:42 AM 26.6 °F - 24.8 °F 93% 30.32 in 10.0 mi Calm Calm - N/A   Clear
1:02 AM 26.6 °F - 24.8 °F 93% 30.32 in 10.0 mi Calm Calm - N/A   Clear
1:22 AM 28.4 °F - 24.8 °F 86% 30.31 in 10.0 mi Calm Calm - N/A   Clear
1:42 AM 30.2 °F - 26.6 °F 86% 30.30 in 10.0 mi Calm Calm - N/A   Clear
2:02 AM 32.0 °F - 26.6 °F 80% 30.30 in 10.0 mi Calm Calm - N/A   Clear
2:22 AM 33.8 °F 30.8 °F 24.8 °F 70% 30.30 in 10.0 mi SSE 3.5 mph - N/A   Clear
2:42 AM 33.8 °F - 23.0 °F 65% 30.29 in 10.0 mi Calm Calm - N/A   Clear
3:02 AM 33.8 °F - 21.2 °F 60% 30.28 in 10.0 mi Calm Calm - N/A   Clear
3:22 AM 33.8 °F - 17.6 °F 52% 30.28 in 10.0 mi Calm Calm - N/A   Clear
3:42 AM 33.8 °F - 17.6 °F 52% 30.28 in 10.0 mi Calm Calm - N/A   Clear
4:02 AM 30.2 °F - 17.6 °F 60% 30.28 in 10.0 mi Calm Calm - N/A   Clear
4:22 AM 28.4 °F - 19.4 °F 69% 30.28 in 10.0 mi Calm Calm - N/A   Clear
4:42 AM 26.6 °F - 21.2 °F 80% 30.28 in 10.0 mi Calm Calm - N/A   Clear
5:02 AM 26.6 °F - 21.2 °F 80% 30.28 in 10.0 mi Calm Calm - N/A   Clear
5:22 AM 28.4 °F - 23.0 °F 80% 30.28 in 10.0 mi Calm Calm - N/A   Clear
5:42 AM 26.6 °F - 21.2 °F 80% 30.28 in 10.0 mi Calm Calm - N/A   Clear
6:02 AM 26.6 °F - 23.0 °F 86% 30.29 in 10.0 mi Calm Calm - N/A   Clear
6:22 AM 26.6 °F - 21.2 °F 80% 30.29 in 10.0 mi Calm Calm - N/A   Clear
6:42 AM 26.6 °F - 21.2 °F 80% 30.29 in 10.0 mi Calm Calm - N/A   Clear
7:02 AM 26.6 °F - 23.0 °F 86% 30.30 in 10.0 mi Calm Calm - N/A   Clear
7:22 AM 28.4 °F - 26.6 °F 93% 30.30 in 10.0 mi Calm Calm - N/A   Clear
7:42 AM 32.0 °F - 30.2 °F 93% 30.31 in 10.0 mi Calm Calm - N/A   Clear
8:02 AM 35.6 °F - 30.2 °F 81% 30.31 in 10.0 mi Calm Calm - N/A   Clear
8:22 AM 37.4 °F - 30.2 °F 75% 30.31 in 10.0 mi Calm Calm - N/A   Clear
8:42 AM 39.2 °F - 30.2 °F 70% 30.30 in 10.0 mi Calm Calm - N/A   Clear
9:02 AM 42.8 °F 37.5 °F 30.2 °F 61% 30.30 in 10.0 mi SW 9.2 mph - N/A   Clear
9:23 AM 44.6 °F 38.8 °F 28.4 °F 53% 30.29 in 10.0 mi SW 11.5 mph - N/A   Clear
9:42 AM 46.4 °F 41.5 °F 28.4 °F 50% 30.29 in 10.0 mi SW 10.4 mph - N/A   Clear
10:03 AM 48.2 °F - 28.4 °F 46% 30.28 in 10.0 mi SW 9.2 mph - N/A   Clear
10:22 AM 50.0 °F - 28.4 °F 43% 30.28 in 10.0 mi SW 10.4 mph - N/A   Clear
10:42 AM 51.8 °F - 28.4 °F 41% 30.27 in 10.0 mi SSW 11.5 mph - N/A   Clear
11:02 AM 53.6 °F - 28.4 °F 38% 30.27 in 10.0 mi WSW 8.1 mph - N/A   Clear
11:22 AM 55.4 °F - 28.4 °F 36% 30.26 in 10.0 mi WSW 8.1 mph 17.3 mph N/A   Clear
11:42 AM 57.2 °F - 30.2 °F 36% 30.26 in 10.0 mi SW 8.1 mph - N/A   Clear
12:02 PM 57.2 °F - 30.2 °F 36% 30.25 in 10.0 mi SW 9.2 mph - N/A   Clear
12:22 PM 59.0 °F - 30.2 °F 34% 30.24 in 10.0 mi WSW 10.4 mph 16.1 mph N/A   Clear
12:42 PM 60.8 °F - 28.4 °F 29% 30.23 in 10.0 mi WSW 13.8 mph 18.4 mph N/A   Clear
1:02 PM 60.8 °F - 30.2 °F 31% 30.22 in 10.0 mi West 8.1 mph - N/A   Clear
1:22 PM 62.6 °F - 30.2 °F 30% 30.21 in 10.0 mi West 11.5 mph 16.1 mph N/A   Clear
1:42 PM 62.6 °F - 28.4 °F 27% 30.20 in 10.0 mi West 8.1 mph 17.3 mph N/A   Clear
2:02 PM 64.4 °F - 26.6 °F 24% 30.19 in 10.0 mi West 8.1 mph - N/A   Clear
2:22 PM 64.4 °F - 26.6 °F 24% 30.18 in 10.0 mi WSW 11.5 mph - N/A   Clear
2:42 PM 64.4 °F - 26.6 °F 24% 30.17 in 10.0 mi WNW 8.1 mph - N/A   Clear
3:02 PM 66.2 °F - 26.6 °F 23% 30.17 in 10.0 mi WNW 5.8 mph - N/A   Clear
3:22 PM 64.4 °F - 26.6 °F 24% 30.17 in 10.0 mi NW 4.6 mph - N/A   Clear
3:42 PM 64.4 °F - 24.8 °F 22% 30.17 in 10.0 mi West 10.4 mph - N/A   Clear
4:02 PM 64.4 °F - 24.8 °F 22% 30.17 in 10.0 mi WNW 4.6 mph - N/A   Clear
4:22 PM 64.4 °F - 24.8 °F 22% 30.17 in 10.0 mi West 4.6 mph - N/A   Clear
4:42 PM 64.4 °F - 24.8 °F 22% 30.17 in 10.0 mi WNW 4.6 mph - N/A   Clear
5:02 PM 64.4 °F - 24.8 °F 22% 30.17 in 10.0 mi WNW 5.8 mph - N/A   Clear
5:22 PM 64.4 °F - 24.8 °F 22% 30.17 in 10.0 mi WNW 5.8 mph - N/A   Clear
5:42 PM 62.6 °F - 24.8 °F 24% 30.18 in 10.0 mi Calm Calm - N/A   Clear
6:02 PM 60.8 °F - 24.8 °F 25% 30.19 in 10.0 mi Calm Calm - N/A   Clear
6:22 PM 57.2 °F - 26.6 °F 31% 30.20 in 10.0 mi Calm Calm - N/A   Clear
6:42 PM 53.6 °F - 24.8 °F 33% 30.20 in 10.0 mi Calm Calm - N/A   Clear
7:02 PM 51.8 °F - 28.4 °F 41% 30.21 in 10.0 mi Calm Calm - N/A   Clear
7:22 PM 48.2 °F - 26.6 °F 43% 30.22 in 10.0 mi Calm Calm - N/A   Clear
7:42 PM 46.4 °F - 26.6 °F 46% 30.23 in 10.0 mi Calm Calm - N/A   Clear
8:02 PM 44.6 °F - 28.4 °F 53% 30.23 in 10.0 mi Calm Calm - N/A   Clear
8:22 PM 42.8 °F - 28.4 °F 57% 30.24 in 10.0 mi Calm Calm - N/A   Clear
8:42 PM 41.0 °F - 28.4 °F 61% 30.25 in 10.0 mi Calm Calm - N/A   Clear
9:02 PM 39.2 °F - 28.4 °F 65% 30.26 in 10.0 mi Calm Calm - N/A   Clear
9:22 PM 39.2 °F - 30.2 °F 70% 30.27 in 10.0 mi Calm Calm - N/A   Clear
9:42 PM 39.2 °F - 30.2 °F 70% 30.27 in 10.0 mi Calm Calm - N/A   Clear
10:03 PM 37.4 °F - 30.2 °F 75% 30.28 in 10.0 mi Calm Calm - N/A   Clear
10:24 PM 37.4 °F - 28.4 °F 70% 30.28 in 10.0 mi Calm Calm - N/A   Clear
10:42 PM 35.6 °F - 30.2 °F 81% 30.29 in 10.0 mi Calm Calm - N/A   Clear
11:02 PM 35.6 °F - 26.6 °F 70% 30.30 in 10.0 mi Calm Calm - N/A   Clear
11:22 PM 37.4 °F 34.9 °F 30.2 °F 75% 30.30 in 10.0 mi NW 3.5 mph - N/A   Clear
11:42 PM 46.4 °F - 26.6 °F 46% 30.31 in 10.0 mi Calm Calm - N/A   Clear